SCP
0 0 0 0 0 0 0 0 0 0 0 0 0 0 -0 -0 -0 -0 -0 -0 -0 -0 -0 0 0 0 0
0 0 0 0 0 0 0 0 0 0 0 0 0 0 -0 0 0 0 -0 -0 0 0 0 -0 0 0 0
0 0 0 0 0 0 0 0 0 0 0 0 0 0 0 0 0 0 -0 -0 0 0 0 0 0 0 0
0 0 0 0 0 0 0 0 0 0 0 0 0 0 0 0 0 0 0 0 0 0 0 0 0 0 0
0 0 0 0 0 0 0 0 0 0 0 0 0 0 0 0 0 0 0 0 0 0 0 0 0 0 0
0 0 0 0 0 0 0 0 0 0 0 0 0 0 0 0 0 0 0 0 0 0 0 0 0 0 0
0 0 0 0 0 0 0 0 0 0 0 0 0 0 0 0 0 0 0 0 0 0 0 0 0 0 0
0 0 0 0 0 0 0 0 0 0 0 0 0 0 0 0 0 0 0 0 0 0 0 0 0 0 0
0 0 0 0 0 0 0 0 0 0 0 0 0 0 0 0 0 0 0 0 0 0 0 0 0 0 0
0 0 0 0 0 0 0 0 0 0 0 0 0 0 0 0 0 0 0 0 0 0 0 0 0 0 0
0 0 0 0 0 0 0 0 0 0 0 0 0 0 0 0 0 0 0 0 0 0 0 0 0 0 0
0 0 0 0 0 0 0 0 0 0 0 0 0 0 0 0 0 0 0 0 0 0 0 0 0 0 0
0 0 0 0 0 0 0 0 0 0 0 0 0 0 0 0 0 0 0 0 0 0 0 0 0 0 0
0 0 0 0 0 0 0 0 0 0 0 0 0 0 0 0 0 0 0 0 0 0 0 0 0 0 0
0 0 0 0 0 0 0 0 0 0 0 0 0 0 0 0 0 0 0 0 0 0 0 0 0 0 -0
0 0 0 0 0 0 0 0 0 0 0 0 0 0 0 0 0 0 0 0 0 0 0 0 0 0 -0
Wind_Speed_500mb
6 8 12 16 20 23 29 33 38 43 48 52 56 61 65 67 72 73 74 77 81 78 69 66 67 69 70
4 9 13 17 19 24 28 32 39 44 48 53 58 65 69 73 77 78 78 80 81 78 78 72 68 67 70
6 9 13 15 18 22 28 34 40 46 51 56 60 65 69 73 78 82 81 82 85 87 86 83 75 76 77
8 10 14 16 19 24 29 35 42 49 52 56 61 66 71 76 80 80 79 82 86 89 88 85 82 80 82
11 12 15 17 20 24 30 35 42 48 53 58 63 67 73 79 82 83 84 85 87 90 90 84 82 80 91
13 14 15 17 20 25 30 36 43 50 55 60 65 69 74 79 81 83 85 86 87 88 87 83 83 89 80
15 14 16 18 21 25 30 36 43 50 56 61 64 68 72 78 81 85 84 86 89 91 84 84 93 86 67
19 16 17 18 22 25 30 35 42 51 56 60 63 67 71 76 80 81 82 84 87 88 87 89 90 71 60
22 18 18 18 21 23 28 35 42 50 54 58 62 66 71 76 78 80 81 81 84 85 88 88 83 60 55
25 20 19 17 21 23 26 33 40 48 52 56 60 64 69 74 75 78 82 84 83 84 90 90 71 56 65
28 23 20 19 21 22 25 31 38 45 49 53 58 63 68 71 73 75 79 80 82 85 89 93 57 65 55
32 26 22 20 20 20 23 29 37 43 47 50 54 60 65 69 72 73 76 76 73 80 88 95 65 60 57
36 29 24 20 19 22 23 27 34 41 44 48 53 58 62 66 68 69 73 76 72 79 92 104 86 78 63
39 33 26 20 20 20 21 25 31 37 41 45 50 55 60 65 66 66 69 72 67 72 69 61 66 92 104
44 38 27 22 21 19 18 23 29 34 38 41 48 53 58 61 63 62 63 64 65 62 61 54 50 59 114
50 39 31 25 22 17 18 21 26 31 34 38 44 49 54 57 59 59 57 55 58 57 62 59 58 69 70
Wind_Direction_500mb
18 1 353 350 352 347 353 354 354 355 356 357 357 356 355 354 353 352 350 348 346 342 337 335 330 325 320
0 345 343 342 341 347 346 350 354 355 355 356 355 355 354 353 350 349 350 348 344 341 340 338 331 322 325
311 328 325 327 334 338 344 350 353 355 356 355 355 353 353 350 349 349 349 349 345 342 342 340 334 330 327
283 302 310 318 329 336 344 351 354 355 354 354 354 353 352 350 349 347 348 349 346 343 342 339 336 331 327
267 289 299 316 328 333 343 350 353 353 353 354 354 353 352 351 349 348 349 350 347 344 343 339 335 328 325
257 274 298 314 323 332 341 349 352 353 353 354 355 354 353 351 348 349 350 348 346 344 344 340 336 325 326
250 273 293 310 322 331 341 349 351 352 354 354 354 353 353 350 349 350 350 348 347 344 345 342 338 332 335
247 266 289 305 317 330 338 348 350 352 353 353 353 354 353 351 351 350 349 350 347 343 346 346 341 341 342
244 261 279 300 313 324 338 346 350 351 352 352 353 353 353 352 351 350 349 351 347 345 347 348 348 350 350
241 255 276 297 309 323 336 345 349 351 351 352 353 353 354 353 351 351 353 353 349 348 346 352 352 352 349
238 250 269 289 304 320 333 344 347 350 350 352 353 355 355 354 352 353 354 355 350 348 346 353 354 360 344
234 245 262 279 295 313 330 341 345 348 349 352 353 356 355 356 353 355 354 356 354 349 350 350 352 347 352
231 239 253 273 296 312 327 336 343 345 347 350 355 357 358 358 355 357 354 354 357 355 355 357 352 346 346
228 234 244 261 281 302 313 326 341 342 345 350 355 357 360 358 357 0 356 352 358 5 353 355 348 346 342
226 233 236 247 269 282 297 327 335 339 345 350 356 358 1 358 359 2 358 358 357 360 4 358 346 332 332
226 229 234 243 256 283 303 314 329 336 343 352 357 359 1 359 1 4 360 2 2 351 352 358 349 342 333
Wind_Speed_850mb
6 8 12 16 20 23 29 33 38 43 48 52 56 61 65 67 72 73 74 77 81 78 69 66 67 69 70
4 9 13 17 19 24 28 32 39 44 48 53 58 65 69 73 77 78 78 80 81 78 78 72 68 67 70
6 9 13 15 18 22 28 34 40 46 51 56 60 65 69 73 78 82 81 82 85 87 86 83 75 76 77
8 10 14 16 19 24 29 35 42 49 52 56 61 66 71 76 80 80 79 82 86 89 88 85 82 80 82
11 12 15 17 20 24 30 35 42 48 53 58 63 67 73 79 82 83 84 85 87 90 90 84 82 80 91
13 14 15 17 20 25 30 36 43 50 55 60 65 69 74 79 81 83 85 86 87 88 87 83 83 89 80
15 14 16 18 21 25 30 36 43 50 56 61 64 68 72 78 81 85 84 86 89 91 84 84 93 86 67
19 16 17 18 22 25 30 35 42 51 56 60 63 67 71 76 80 81 82 84 87 88 87 89 90 71 60
22 18 18 18 21 23 28 35 42 50 54 58 62 66 71 76 78 80 81 81 84 85 88 88 83 60 55
25 20 19 17 21 23 26 33 40 48 52 56 60 64 69 74 75 78 82 84 83 84 90 90 71 56 65
28 23 20 19 21 22 25 31 38 45 49 53 58 63 68 71 73 75 79 80 82 85 89 93 57 65 55
32 26 22 20 20 20 23 29 37 43 47 50 54 60 65 69 72 73 76 76 73 80 88 95 65 60 57
36 29 24 20 19 22 23 27 34 41 44 48 53 58 62 66 68 69 73 76 72 79 92 104 86 78 63
39 33 26 20 20 20 21 25 31 37 41 45 50 55 60 65 66 66 69 72 67 72 69 61 66 92 104
44 38 27 22 21 19 18 23 29 34 38 41 48 53 58 61 63 62 63 64 65 62 61 54 50 59 114
50 39 31 25 22 17 18 21 26 31 34 38 44 49 54 57 59 59 57 55 58 57 62 59 58 69 70
Wind_Direction_850mb
18 1 353 350 352 347 353 354 354 355 356 357 357 356 355 354 353 352 350 348 346 342 337 335 330 325 320
0 345 343 342 341 347 346 350 354 355 355 356 355 355 354 353 350 349 350 348 344 341 340 338 331 322 325
311 328 325 327 334 338 344 350 353 355 356 355 355 353 353 350 349 349 349 349 345 342 342 340 334 330 327
283 302 310 318 329 336 344 351 354 355 354 354 354 353 352 350 349 347 348 349 346 343 342 339 336 331 327
267 289 299 316 328 333 343 350 353 353 353 354 354 353 352 351 349 348 349 350 347 344 343 339 335 328 325
257 274 298 314 323 332 341 349 352 353 353 354 355 354 353 351 348 349 350 348 346 344 344 340 336 325 326
250 273 293 310 322 331 341 349 351 352 354 354 354 353 353 350 349 350 350 348 347 344 345 342 338 332 335
247 266 289 305 317 330 338 348 350 352 353 353 353 354 353 351 351 350 349 350 347 343 346 346 341 341 342
244 261 279 300 313 324 338 346 350 351 352 352 353 353 353 352 351 350 349 351 347 345 347 348 348 350 350
241 255 276 297 309 323 336 345 349 351 351 352 353 353 354 353 351 351 353 353 349 348 346 352 352 352 349
238 250 269 289 304 320 333 344 347 350 350 352 353 355 355 354 352 353 354 355 350 348 346 353 354 360 344
234 245 262 279 295 313 330 341 345 348 349 352 353 356 355 356 353 355 354 356 354 349 350 350 352 347 352
231 239 253 273 296 312 327 336 343 345 347 350 355 357 358 358 355 357 354 354 357 355 355 357 352 346 346
228 234 244 261 281 302 313 326 341 342 345 350 355 357 360 358 357 0 356 352 358 5 353 355 348 346 342
226 233 236 247 269 282 297 327 335 339 345 350 356 358 1 358 359 2 358 358 357 360 4 358 346 332 332
226 229 234 243 256 283 303 314 329 336 343 352 357 359 1 359 1 4 360 2 2 351 352 358 349 342 333